Total_Precipitation_Accumulation
0.73 0.76 0.88 0.97 0.98 0.96 0.97 0.93 0.97 0.98 0.99 1.01 1.04 1.05 1.05 1.10 1.27 1.49 1.45 1.39 1.42 1.47 1.54 1.64 1.67 1.72 1.70 1.53 1.47 1.43 1.45 1.55 1.41 1.13 1.07 1.05 0.95 0.83 0.82 0.78 0.74 0.73 0.70
0.50 0.58 0.71 0.85 0.85 0.84 0.87 0.97 1.00 0.96 0.90 0.82 0.87 0.94 0.94 1.04 1.24 1.52 1.64 1.64 1.63 1.56 1.65 1.85 1.86 1.81 1.70 1.57 1.58 1.51 1.48 1.58 1.51 1.33 1.29 1.22 1.13 1.00 0.92 0.87 0.76 0.74 0.77
0.40 0.47 0.57 0.72 0.83 0.87 0.91 0.96 1.01 0.99 0.94 0.92 0.94 0.96 1.04 1.09 1.12 1.30 1.48 1.56 1.60 1.59 1.71 1.77 1.77 1.83 1.75 1.66 1.58 1.53 1.51 1.63 1.70 1.58 1.59 1.54 1.39 1.25 1.17 1.05 0.93 0.91 0.80
0.38 0.48 0.57 0.65 0.79 0.91 0.96 0.99 1.02 1.04 1.01 1.03 1.07 1.11 1.16 1.17 1.17 1.26 1.41 1.51 1.56 1.61 1.70 1.77 1.79 1.79 1.84 1.92 1.80 1.75 1.80 1.86 1.90 1.85 1.80 1.89 1.79 1.57 1.40 1.25 1.10 1.01 0.92
0.42 0.50 0.56 0.65 0.71 0.79 0.94 1.01 1.10 1.12 1.08 1.14 1.24 1.26 1.24 1.18 1.13 1.33 1.46 1.47 1.58 1.66 1.68 1.65 1.71 1.89 1.97 1.98 1.82 1.82 1.92 1.91 1.87 1.89 1.86 1.95 1.95 1.78 1.51 1.27 1.17 1.13 1.06
0.59 0.62 0.65 0.71 0.79 0.83 0.90 0.94 1.06 1.13 1.21 1.31 1.36 1.38 1.32 1.15 1.32 1.46 1.48 1.50 1.58 1.63 1.64 1.57 1.50 1.55 1.65 1.72 1.67 1.61 1.65 1.71 1.77 1.78 1.80 1.85 1.88 1.78 1.60 1.42 1.29 1.18 1.14
0.72 0.83 0.88 0.92 1.00 1.04 1.07 1.06 1.11 1.24 1.34 1.36 1.36 1.37 1.36 1.41 1.45 1.33 1.29 1.21 1.27 1.34 1.34 1.32 1.16 1.09 1.30 1.37 1.51 1.50 1.40 1.37 1.40 1.52 1.64 1.66 1.79 1.83 1.78 1.58 1.50 1.41 1.25
0.99 1.10 1.21 1.28 1.35 1.41 1.47 1.43 1.43 1.48 1.57 1.56 1.48 1.48 1.55 1.55 1.51 1.32 1.24 1.12 1.13 1.15 1.14 1.11 1.10 1.09 1.13 1.22 1.29 1.30 1.26 1.21 1.20 1.22 1.33 1.51 1.68 1.83 1.84 1.74 1.69 1.57 1.38
1.30 1.40 1.51 1.57 1.61 1.63 1.62 1.68 1.74 1.83 1.85 1.85 1.80 1.83 1.83 1.88 1.82 1.55 1.43 1.26 1.21 1.16 1.18 1.21 1.21 1.11 1.16 1.12 1.11 1.14 1.15 1.19 1.19 1.19 1.22 1.39 1.58 1.70 1.83 1.79 1.72 1.60 1.43
1.36 1.45 1.63 1.76 1.84 1.82 1.83 1.93 2.07 2.19 2.16 2.15 2.17 2.17 2.09 2.05 2.01 1.66 1.46 1.27 1.29 1.27 1.30 1.25 1.19 1.06 1.01 0.96 0.96 1.04 1.02 1.03 1.11 1.14 1.15 1.25 1.39 1.52 1.68 1.65 1.55 1.55 1.41
1.58 1.63 1.71 1.81 1.93 1.94 1.99 2.03 2.14 2.25 2.24 2.19 2.12 2.04 1.98 1.99 1.96 1.68 1.49 1.31 1.35 1.38 1.30 1.25 1.20 1.10 0.94 0.89 0.84 0.87 0.90 0.95 1.02 1.07 1.16 1.28 1.42 1.55 1.56 1.55 1.53 1.42 1.34
1.83 1.90 1.89 1.93 1.90 1.84 1.96 2.07 2.16 2.26 2.21 2.16 2.16 2.04 1.94 1.91 1.78 1.59 1.43 1.36 1.45 1.51 1.46 1.37 1.30 1.16 0.94 0.87 0.78 0.80 0.83 0.82 0.93 1.03 1.09 1.19 1.31 1.45 1.55 1.61 1.61 1.48 1.29
1.73 1.77 1.84 1.87 1.89 1.89 1.97 2.06 2.18 2.20 2.15 2.07 2.08 2.08 2.01 1.91 1.85 1.66 1.43 1.32 1.34 1.37 1.48 1.55 1.40 1.23 1.05 0.92 0.91 0.88 0.82 0.77 0.90 1.01 1.01 1.05 1.12 1.26 1.52 1.72 1.81 1.73 1.46
1.39 1.45 1.48 1.58 1.67 1.82 2.00 2.03 2.10 2.17 2.19 2.16 2.12 2.07 2.03 1.98 1.97 1.80 1.58 1.40 1.38 1.43 1.50 1.55 1.43 1.30 1.13 0.99 0.96 0.86 0.77 0.75 0.82 0.92 1.00 1.06 1.17 1.26 1.40 1.56 1.74 1.78 1.61
1.19 1.24 1.34 1.47 1.58 1.75 1.95 2.05 1.98 1.99 2.11 2.05 1.94 1.84 1.77 1.72 1.80 1.71 1.52 1.44 1.43 1.51 1.57 1.64 1.58 1.46 1.35 1.21 1.11 1.05 0.99 0.95 0.90 0.91 1.03 1.09 1.14 1.15 1.21 1.34 1.54 1.64 1.50
1.13 1.15 1.20 1.25 1.36 1.48 1.61 1.70 1.63 1.44 1.47 1.41 1.28 1.16 1.12 1.15 1.23 1.20 1.13 1.08 1.13 1.26 1.37 1.53 1.52 1.42 1.34 1.30 1.26 1.20 1.14 1.07 1.00 0.99 1.02 1.06 1.07 1.09 1.15 1.24 1.35 1.44 1.39
1.12 1.08 1.11 1.14 1.21 1.24 1.29 1.39 1.42 1.28 1.09 1.00 0.87 0.74 0.68 0.71 0.82 0.89 0.92 0.91 0.93 0.97 1.08 1.26 1.27 1.23 1.21 1.23 1.20 1.11 1.03 1.04 1.06 1.03 0.98 1.02 1.08 1.10 1.13 1.21 1.26 1.36 1.40
1.31 1.23 1.13 1.10 1.11 1.11 1.14 1.19 1.27 1.31 1.20 1.00 0.77 0.58 0.51 0.53 0.63 0.77 0.88 0.84 0.86 0.85 0.90 1.04 1.08 1.10 1.12 1.17 1.16 1.15 1.11 1.12 1.13 1.09 1.07 1.09 1.16 1.20 1.19 1.21 1.28 1.31 1.35
1.20 1.21 1.11 1.06 1.06 1.08 1.09 1.14 1.21 1.23 1.28 1.23 0.98 0.70 0.54 0.54 0.62 0.77 0.84 0.80 0.88 0.90 0.93 1.00 1.04 1.05 1.08 1.15 1.16 1.16 1.16 1.18 1.17 1.17 1.17 1.18 1.25 1.31 1.22 1.16 1.20 1.26 1.22
0.93 0.92 0.84 0.87 0.90 0.96 1.01 1.04 1.08 1.15 1.20 1.20 1.08 0.82 0.56 0.51 0.60 0.79 0.87 0.92 0.98 1.00 1.00 1.00 1.06 1.08 1.08 1.09 1.11 1.11 1.13 1.17 1.17 1.18 1.23 1.26 1.26 1.27 1.19 1.15 1.15 1.19 1.15
0.76 0.70 0.61 0.67 0.79 0.84 0.89 0.93 0.94 0.99 1.05 1.06 0.97 0.68 0.46 0.46 0.61 0.77 0.91 1.00 1.00 1.01 1.01 1.01 1.03 1.00 1.00 1.02 1.04 1.05 1.13 1.16 1.16 1.16 1.20 1.25 1.25 1.22 1.17 1.16 1.14 1.15 1.19
0.76 0.74 0.58 0.59 0.72 0.77 0.79 0.88 0.90 0.91 0.94 0.96 0.86 0.61 0.50 0.53 0.67 0.81 0.97 1.02 0.98 0.96 0.94 0.95 0.95 0.93 0.90 0.92 1.00 1.07 1.13 1.14 1.12 1.11 1.14 1.17 1.19 1.17 1.15 1.14 1.16 1.20 1.23
0.68 0.74 0.62 0.56 0.63 0.63 0.69 0.87 0.91 0.89 0.90 0.90 0.77 0.66 0.65 0.74 0.84 0.94 1.03 1.03 0.97 0.94 0.93 0.92 0.90 0.86 0.79 0.80 0.84 0.91 1.02 1.07 1.03 1.01 1.06 1.06 1.07 1.06 1.02 1.01 1.04 1.11 1.15
0.54 0.63 0.57 0.49 0.52 0.60 0.71 0.83 0.89 0.86 0.88 0.90 0.79 0.69 0.70 0.79 0.87 0.93 0.98 0.96 0.88 0.89 0.88 0.84 0.78 0.73 0.71 0.77 0.80 0.76 0.76 0.76 0.75 0.79 0.87 0.90 0.95 1.00 0.97 0.94 0.99 1.03 1.10
0.53 0.60 0.53 0.43 0.43 0.51 0.66 0.77 0.83 0.84 0.85 0.84 0.75 0.68 0.69 0.75 0.82 0.81 0.78 0.76 0.74 0.74 0.72 0.70 0.71 0.69 0.65 0.58 0.59 0.57 0.56 0.52 0.50 0.54 0.66 0.77 0.81 0.90 0.96 0.98 1.03 1.10 1.13
0.47 0.54 0.50 0.40 0.37 0.44 0.58 0.69 0.75 0.80 0.82 0.79 0.75 0.73 0.74 0.76 0.72 0.68 0.67 0.67 0.66 0.66 0.63 0.60 0.60 0.56 0.54 0.49 0.46 0.45 0.42 0.38 0.36 0.40 0.47 0.58 0.68 0.80 0.87 0.90 0.93 1.03 1.08